[[{"header":{"parameterUnit":"m.s-1","parameterCategory":1,"la1":30.2991,"la2":30.254,"lo1":-89.0895,"lo2":-89.0444,"dy":0.0017,"dx":0.0017,"nx":28,"ny":28,"refTime":"2023-09-06T21:00:00:Z","depth":0,"parameterNumber":2,"parameterNumberName":"U-component_of_WINDS"},"data":[0,0,0,0,0,0,0,0,0,0,0,0,0,0,0,0,0,0,0,0,0,0,0,0,0,0,0,0,0,0,0,0,0,0,0,0,0,0,0,0,0,0,0,0,0,0,0,0,0,0,0,0,0,0,0,0,0,0,1.9088,1.9089,0,1.921,1.9211,1.9212,1.9221,1.9219,1.9218,1.9217,1.9345,1.935,1.9355,0,0,0,0,0,0,0,0,0,0,0,0,0,1.8868,1.8872,1.9088,1.909,1.9091,1.9209,1.9211,1.9213,1.9221,1.9219,1.9218,1.9216,1.9344,1.9349,1.9355,0,0,0,0,0,0,0,0,0,0,0,0,0,1.8974,1.8873,1.9088,1.9109,1.9112,1.9209,1.9211,1.9213,1.9221,1.9219,1.9217,1.9215,1.9342,1.9349,1.9356,1.9441,0,0,1.9377,1.938,0,0,0,0,0,0,0,0,1.8968,1.8982,1.9105,1.9108,1.9112,1.9198,1.9181,1.929,1.9222,1.918,1.9217,1.9214,1.9298,1.9309,1.9336,1.9447,1.9452,1.9378,1.9382,1.9385,1.9387,0,0,0,0,0,0,0,1.896,1.8977,1.9136,1.9106,1.9111,1.9115,1.9127,1.9201,1.9249,1.9184,1.9184,1.9198,1.93,1.9329,1.9339,1.9454,1.9378,1.9384,1.9388,1.9391,1.9642,1.9645,0,0,0,0,0,0,1.8948,1.8971,1.9132,1.914,1.9033,1.912,1.9134,1.9172,1.9249,1.9258,1.92,1.9198,1.9318,1.9331,1.9344,1.9449,1.9385,1.9392,1.9396,1.964,1.9643,1.9646,0,0,0,0,0,0,1.8944,1.8963,1.9128,1.9056,1.9077,1.9126,1.9169,1.9176,1.9205,1.9261,1.927,1.9221,1.9317,1.9334,1.9417,1.9454,1.9395,1.9402,1.9637,1.9641,1.9644,1.966,0,0,0,0,0,0,1.8937,1.8961,1.8992,1.9056,1.9081,1.9197,1.9171,1.918,1.9217,1.9216,1.9283,1.9292,1.9317,1.9406,1.9424,1.9463,1.9407,1.9634,1.9639,1.9643,1.9657,1.9664,1.967,0,0,0,0,0,1.8929,1.8993,1.8994,1.9013,1.9121,1.9199,1.9213,1.9239,1.922,1.9253,1.9289,1.929,1.9447,1.9414,1.9434,1.9476,1.9632,1.9637,1.9643,1.9654,1.9663,1.967,0,0,0,0,0,0,1.8933,1.9001,1.9004,1.9089,1.9138,1.92,1.9242,1.9247,1.9303,1.93,1.9331,1.9346,1.9428,1.946,1.9423,1.9563,1.9538,1.9547,1.9539,1.9548,1.9555,1.9546,1.9413,0,0,0,0,0,1.8944,1.9,1.9057,1.9127,1.9152,1.9193,1.9228,1.9243,1.9296,1.9317,1.9359,1.9411,1.9472,1.9512,1.9571,1.9661,1.9677,1.97,1.9707,1.9712,1.972,1.9772,1.9784,1.9663,1.9663,1.9663,0,0,1.8967,1.9011,1.9045,1.9129,1.9169,1.9228,1.921,1.9273,1.9318,1.9327,1.9407,1.944,1.9501,1.9588,1.9628,1.9617,1.9757,1.9719,1.9723,1.9729,1.9779,1.979,1.98,1.9667,1.9667,1.9666,0,0,1.9039,1.9077,1.914,1.918,1.924,1.9268,1.9283,1.9345,1.9366,1.9447,1.9456,1.951,1.9614,1.9657,1.9693,1.9783,1.9787,1.9801,1.9837,1.9887,1.9897,1.9905,1.9939,1.995,1.9809,1.9809,1.9809,0,1.906,1.9148,1.9172,1.9236,1.9273,1.9283,1.9348,1.9387,1.9464,1.949,1.9476,1.9608,1.9649,1.9747,1.9769,1.9797,1.9817,1.9794,1.9893,1.9902,1.991,1.9943,1.9955,1.9811,1.981,1.981,1.981,0,1.9172,1.9233,1.9277,1.935,1.9393,1.9457,1.9493,1.9533,1.9545,1.9575,1.9658,1.9708,1.9778,1.9802,1.9815,1.9903,1.9894,1.9886,1.9862,1.9923,1.9954,1.9966,1.9813,1.9812,1.9812,1.9811,0,0,1.9249,1.9335,1.9351,1.9385,1.9453,1.9501,1.9567,1.9634,1.9669,1.9722,1.9779,1.9867,1.986,1.9901,1.9919,1.9963,2.0032,1.995,1.9952,1.9964,2.0134,2.014,2.0154,2.0035,2.0037,2.0039,2.0129,0,1.933,1.9445,1.9469,1.9569,1.9627,1.9638,1.9695,1.9743,1.9773,1.9827,1.986,1.9923,1.9909,1.9933,1.9977,2.0014,2.0067,2.0008,2.009,2.0092,2.0075,2.017,2.0176,2.0259,2.0141,2.0143,2.0145,0,1.9439,1.9494,1.9599,1.966,1.9685,1.9736,1.98,1.9852,1.9908,1.9926,1.9972,1.9985,2.0056,2.0027,2.0125,2.0084,2.0119,2.0143,2.0147,2.0156,2.0123,2.0183,2.0286,2.0298,2.0164,2.0162,2.0161,0,1.9487,1.9587,1.9663,1.9692,1.9764,1.98,1.9832,1.9886,1.9925,1.9982,2.0009,2.0073,2.0109,2.016,2.0191,2.0167,2.0288,2.0261,2.0306,2.0306,2.0332,2.033,2.0443,2.0353,2.0353,2.0352,2.0352,0,1.9574,1.9639,1.9685,1.9732,1.9806,1.9834,1.9906,1.9939,1.9987,2.0042,2.0055,2.0106,2.0144,2.0202,2.0227,2.0305,2.0321,2.0339,2.0345,2.0339,2.0336,2.0363,2.0358,2.0356,2.0355,2.0354,2.0354,0,1.964,1.9674,1.9758,1.982,1.9837,1.9888,1.9942,1.9989,2.0018,2.0088,2.0106,2.0153,2.0221,2.0257,2.0343,2.036,2.0449,2.0451,2.0429,2.0432,2.0476,2.0472,2.061,2.0631,2.0526,2.0527,2.0528,0,1.9694,1.9744,1.9811,1.9848,1.9881,1.994,1.9981,2.0011,2.0053,2.0121,2.016,2.0229,2.0286,2.0395,2.0438,2.0504,2.0508,2.0553,2.0519,2.0511,2.0511,2.0508,2.0514,2.0559,2.056,2.0561,2.0561,0,1.9787,1.9802,1.9858,1.9921,1.9969,2.002,2.0071,2.0101,2.014,2.0186,2.0256,2.03,2.0387,2.0456,2.0525,2.056,2.0568,2.0571,2.0586,2.058,2.0566,2.0575,2.0447,2.0568,2.0568,2.0567,2.0567,2.0566,1.985,1.9895,1.9949,2.0013,2.0054,2.0101,2.0149,2.0184,2.0242,2.0315,2.033,2.0404,2.046,2.0554,2.0591,2.0651,2.0642,2.0662,2.0668,2.0672,2.0675,2.0555,2.0663,2.0663,2.0663,2.0663,2.0663,0,1.9945,1.998,2.0038,2.0108,2.0159,2.016,2.0217,2.0259,2.0323,2.0375,2.043,2.0511,2.0578,2.0626,2.0695,2.0733,2.0739,2.075,2.0748,2.0757,2.0678,2.0659,2.0745,2.0745,2.0745,2.0745,2.0745,2.0745,2.0,2.0077,2.0098,2.0196,2.0232,2.0303,2.0336,2.038,2.0422,2.051,2.0566,2.0596,2.0647,2.072,2.0782,2.0795,2.082,2.0832,2.0845,2.0771,2.0762,2.0754,2.0736,2.0837,2.0837,2.0919,2.0919,2.092]},{"header":{"parameterUnit":"m.s-1","parameterCategory":1,"la1":30.2991,"la2":30.254,"lo1":-89.0895,"lo2":-89.0444,"dy":0.0017,"dx":0.0017,"nx":28,"ny":28,"refTime":"2023-09-06T21:00:00:Z","depth":0,"parameterNumber":3,"parameterNumberName":"V-component_of_WINDS"},"data":[0,0,0,0,0,0,0,0,0,0,0,0,0,0,0,0,0,0,0,0,0,0,0,0,0,0,0,0,0,0,0,0,0,0,0,0,0,0,0,0,0,0,0,0,0,0,0,0,0,0,0,0,0,0,0,0,0,0,0.2839,0.2839,0,0.2793,0.2793,0.2792,0.2761,0.2761,0.2761,0.2761,0.2714,0.2713,0.2712,0,0,0,0,0,0,0,0,0,0,0,0,0,0.2897,0.2896,0.2839,0.2838,0.2838,0.2793,0.2793,0.2792,0.2761,0.2761,0.2761,0.2761,0.2714,0.2713,0.2712,0,0,0,0,0,0,0,0,0,0,0,0,0,0.2864,0.2896,0.2839,0.2817,0.2815,0.2793,0.2793,0.2792,0.2761,0.2761,0.2761,0.276,0.2715,0.2713,0.2712,0.2709,0,0,0.2707,0.2706,0,0,0,0,0,0,0,0,0.2866,0.2862,0.2821,0.2819,0.2816,0.2783,0.2796,0.2764,0.2761,0.2782,0.2761,0.276,0.2737,0.2734,0.2726,0.2706,0.2704,0.2707,0.2706,0.2705,0.2705,0,0,0,0,0,0,0,0.2868,0.2863,0.2821,0.282,0.2817,0.2809,0.2804,0.279,0.2762,0.278,0.2778,0.2773,0.2736,0.2727,0.2724,0.2704,0.2707,0.2705,0.2704,0.2704,0.2675,0.2675,0,0,0,0,0,0,0.2874,0.2866,0.2822,0.282,0.284,0.2808,0.2802,0.2794,0.2762,0.2757,0.2773,0.2771,0.273,0.2726,0.2723,0.2714,0.2705,0.2704,0.2703,0.2675,0.2675,0.2675,0,0,0,0,0,0,0.2875,0.287,0.2824,0.2842,0.2835,0.2807,0.2798,0.2793,0.2785,0.2756,0.2751,0.277,0.273,0.2725,0.2711,0.2713,0.2703,0.2701,0.2675,0.2675,0.2675,0.27,0,0,0,0,0,0,0.2877,0.2871,0.2871,0.2842,0.2834,0.2815,0.2798,0.2792,0.2782,0.278,0.2752,0.2747,0.2729,0.2714,0.271,0.271,0.27,0.2675,0.2675,0.2675,0.2699,0.2701,0.2703,0,0,0,0,0,0.2879,0.288,0.2871,0.2866,0.2833,0.2815,0.281,0.2789,0.2782,0.2781,0.2762,0.2748,0.2713,0.2713,0.2708,0.2708,0.2674,0.2675,0.2675,0.2698,0.2701,0.2703,0,0,0,0,0,0,0.2911,0.2876,0.2865,0.2857,0.2839,0.281,0.2807,0.2793,0.2777,0.2775,0.275,0.2744,0.2732,0.2719,0.2719,0.2701,0.2692,0.2691,0.2711,0.2713,0.2715,0.2718,0.2699,0,0,0,0,0,0.2916,0.2905,0.2875,0.2871,0.2862,0.2836,0.2827,0.2812,0.2793,0.2785,0.2765,0.2747,0.2731,0.2721,0.2705,0.2696,0.2689,0.2694,0.2696,0.2697,0.2697,0.2688,0.269,0.2677,0.2677,0.2677,0,0,0.2929,0.2908,0.2903,0.2876,0.286,0.2848,0.283,0.2818,0.2808,0.2783,0.2769,0.2753,0.273,0.2718,0.2712,0.2706,0.2699,0.2698,0.27,0.2698,0.2689,0.269,0.2691,0.2677,0.2677,0.2677,0,0,0.2944,0.2928,0.2921,0.2905,0.2881,0.2863,0.2861,0.2833,0.2822,0.2807,0.2787,0.2774,0.2748,0.2731,0.272,0.2724,0.271,0.272,0.273,0.2722,0.2723,0.2724,0.2724,0.2724,0.272,0.272,0.272,0,0.2962,0.2943,0.2919,0.2908,0.2895,0.2871,0.2863,0.2848,0.282,0.2812,0.2806,0.2771,0.2754,0.2736,0.2737,0.2729,0.2724,0.2723,0.2725,0.2725,0.2726,0.2725,0.2725,0.2721,0.2721,0.2721,0.2721,0,0.2965,0.2951,0.2949,0.2921,0.2908,0.2899,0.2872,0.2862,0.2847,0.283,0.2813,0.2791,0.2769,0.2764,0.275,0.2743,0.274,0.273,0.272,0.2728,0.2727,0.2727,0.2723,0.2723,0.2722,0.2722,0,0,0.3001,0.2958,0.2957,0.2943,0.2912,0.2901,0.2889,0.2867,0.2857,0.2838,0.2826,0.2803,0.2792,0.2779,0.2762,0.2755,0.2757,0.2745,0.2744,0.2747,0.2745,0.2753,0.2753,0.2747,0.2747,0.2747,0.2747,0,0.301,0.2987,0.2964,0.2949,0.2935,0.291,0.2899,0.2878,0.2861,0.2845,0.2825,0.2809,0.2797,0.2788,0.278,0.2759,0.2756,0.2759,0.2735,0.2734,0.2741,0.2753,0.2761,0.2762,0.2746,0.2746,0.2746,0,0.3019,0.2999,0.2983,0.2951,0.2944,0.2934,0.291,0.2896,0.2871,0.2859,0.2842,0.2824,0.2808,0.2799,0.2775,0.2777,0.2766,0.2753,0.2753,0.2749,0.2741,0.2748,0.2762,0.2761,0.2746,0.2746,0.2746,0,0.3044,0.3014,0.2999,0.2988,0.2951,0.2944,0.2928,0.2903,0.289,0.2869,0.2859,0.2837,0.2824,0.2806,0.2782,0.2778,0.276,0.275,0.2747,0.2748,0.2745,0.2745,0.2755,0.2739,0.2739,0.2739,0.2739,0,0.3057,0.3047,0.3009,0.3,0.2987,0.296,0.2948,0.293,0.2907,0.2893,0.287,0.2856,0.2825,0.2808,0.2788,0.277,0.2765,0.2753,0.2748,0.2755,0.2756,0.2747,0.2746,0.2739,0.2739,0.2739,0.2739,0,0.3084,0.3058,0.304,0.3005,0.2996,0.2988,0.2958,0.2947,0.2927,0.2909,0.2903,0.2872,0.2849,0.2823,0.2793,0.2779,0.2762,0.2755,0.2771,0.2768,0.2766,0.2766,0.277,0.2769,0.2755,0.2755,0.2755,0,0.3093,0.3085,0.3049,0.3037,0.3022,0.3004,0.299,0.2962,0.2948,0.2917,0.2909,0.2885,0.2864,0.283,0.2804,0.2779,0.2771,0.2774,0.2767,0.2773,0.2769,0.2769,0.2767,0.2775,0.2776,0.2776,0.2776,0,0.3112,0.3099,0.308,0.3055,0.3039,0.3018,0.2996,0.2988,0.2955,0.294,0.2917,0.2901,0.2868,0.2844,0.2816,0.2798,0.2781,0.2778,0.2776,0.2783,0.2791,0.2785,0.2775,0.2778,0.2778,0.2778,0.2778,0.2778,0.3129,0.3119,0.3092,0.307,0.305,0.303,0.3017,0.2994,0.2975,0.2946,0.293,0.2907,0.2879,0.2839,0.2822,0.2802,0.2796,0.2794,0.2793,0.2792,0.2793,0.2795,0.2797,0.2797,0.2797,0.2796,0.2796,0,0.3146,0.3126,0.3106,0.3076,0.3058,0.3043,0.3017,0.3003,0.2982,0.2958,0.2937,0.2909,0.2884,0.2855,0.2828,0.2818,0.2809,0.2811,0.2812,0.2807,0.2801,0.2805,0.2819,0.2819,0.2819,0.2819,0.2819,0.2819,0.3152,0.3134,0.3117,0.3087,0.3067,0.3044,0.303,0.301,0.299,0.296,0.2939,0.292,0.2892,0.2863,0.2839,0.283,0.2821,0.2826,0.2815,0.281,0.2808,0.2806,0.281,0.2824,0.2824,0.2822,0.2823,0.2823]}]]